TimeCDT,TemperatureF,Dew PointF,Humidity,Sea Level PressureIn,VisibilityMPH,Wind Direction,Wind SpeedMPH,Gust SpeedMPH,PrecipitationIn,Events,Conditions,WindDirDegrees,DateUTC
12:53 AM,77.0,73.9,90,29.76,10.0,WSW,4.6,-,0.01,Rain,Light Rain,240,2013-09-22 05:53:00
1:40 AM,75.2,71.6,89,29.75,10.0,NNW,8.1,-,0.00,Rain,Light Rain,340,2013-09-22 06:40:00
1:50 AM,75.2,71.6,89,29.75,10.0,NNW,6.9,-,0.00,Rain,Light Rain,330,2013-09-22 06:50:00
1:53 AM,75.0,72.0,90,29.76,10.0,NW,8.1,-,0.00,Rain,Light Rain,320,2013-09-22 06:53:00
2:46 AM,71.6,69.8,94,29.74,5.0,North,10.4,-,0.02,Rain,Light Rain,350,2013-09-22 07:46:00
2:53 AM,72.0,70.0,93,29.75,9.0,North,8.1,-,0.03,Rain,Light Rain,350,2013-09-22 07:53:00
3:24 AM,71.6,69.8,94,29.74,10.0,North,9.2,-,0.05,Rain,Light Rain,360,2013-09-22 08:24:00
3:53 AM,71.1,69.1,93,29.74,10.0,North,8.1,-,0.06,Rain,Light Rain,360,2013-09-22 08:53:00
4:19 AM,71.6,69.8,94,29.74,10.0,NNE,5.8,-,0.01,Rain,Light Rain,20,2013-09-22 09:19:00
4:37 AM,71.6,69.8,94,29.74,10.0,NNE,6.9,-,0.01,Rain,Light Rain,20,2013-09-22 09:37:00
4:53 AM,71.1,68.0,90,29.75,10.0,NNE,6.9,-,0.01,Rain,Light Rain,20,2013-09-22 09:53:00
5:31 AM,71.6,68.0,88,29.74,10.0,NNE,8.1,-,0.00,Rain,Light Rain,30,2013-09-22 10:31:00
5:48 AM,69.8,68.0,94,29.74,10.0,NNE,5.8,-,0.00,,Partly Cloudy,30,2013-09-22 10:48:00
5:53 AM,70.0,68.0,93,29.75,10.0,NNE,5.8,-,0.00,,Partly Cloudy,30,2013-09-22 10:53:00
6:02 AM,69.8,68.0,94,29.75,10.0,Variable,4.6,-,N/A,,Partly Cloudy,0,2013-09-22 11:02:00
6:21 AM,69.8,68.0,94,29.75,10.0,NNE,8.1,-,N/A,,Mostly Cloudy,30,2013-09-22 11:21:00
6:53 AM,70.0,68.0,93,29.76,10.0,NNE,6.9,-,N/A,,Overcast,20,2013-09-22 11:53:00
7:53 AM,70.0,66.9,90,29.78,10.0,NNE,6.9,-,N/A,,Overcast,30,2013-09-22 12:53:00
8:53 AM,72.0,68.0,87,29.78,10.0,NE,9.2,-,N/A,,Mostly Cloudy,40,2013-09-22 13:53:00
9:53 AM,73.0,68.0,84,29.80,10.0,NNE,6.9,-,N/A,,Overcast,30,2013-09-22 14:53:00
10:53 AM,73.9,69.1,85,29.81,10.0,Variable,5.8,-,N/A,,Overcast,0,2013-09-22 15:53:00
11:35 AM,75.2,69.8,83,29.81,10.0,NNE,6.9,-,N/A,,Overcast,30,2013-09-22 16:35:00
11:47 AM,73.4,69.8,88,29.81,1.8,NNE,6.9,-,0.01,Rain,Rain,30,2013-09-22 16:47:00
11:53 AM,73.9,70.0,87,29.81,1.5,NNE,4.6,-,0.03,Rain,Rain,30,2013-09-22 16:53:00
12:13 PM,73.4,71.6,94,29.81,2.5,NNE,5.8,-,0.03,Rain,Light Rain,30,2013-09-22 17:13:00
12:17 PM,73.4,71.6,94,29.81,1.5,NNE,5.8,-,0.04,Rain,Heavy Rain,20,2013-09-22 17:17:00
12:26 PM,73.4,71.6,94,29.81,2.0,Calm,Calm,-,0.07,Rain,Light Rain,0,2013-09-22 17:26:00
12:28 PM,73.4,71.6,94,29.80,3.0,NNE,3.5,-,0.07,Rain,Light Rain,30,2013-09-22 17:28:00
12:53 PM,73.9,71.1,91,29.80,6.0,NE,6.9,-,0.07,,Overcast,40,2013-09-22 17:53:00
1:15 PM,73.4,71.6,94,29.79,2.0,NNE,6.9,-,0.00,Rain,Light Rain,30,2013-09-22 18:15:00
1:49 PM,73.4,71.6,94,29.78,1.8,NNE,6.9,-,0.01,Rain,Light Rain,20,2013-09-22 18:49:00
1:53 PM,73.9,71.1,91,29.78,2.0,North,6.9,-,0.02,Rain,Light Rain,10,2013-09-22 18:53:00
2:02 PM,75.2,71.6,89,29.78,3.0,North,6.9,-,0.00,Rain,Light Rain,10,2013-09-22 19:02:00
2:53 PM,75.9,72.0,87,29.77,10.0,North,6.9,-,0.00,,Overcast,10,2013-09-22 19:53:00
3:53 PM,77.0,72.0,84,29.75,10.0,NNE,8.1,-,N/A,,Overcast,30,2013-09-22 20:53:00
4:50 PM,77.0,71.6,83,29.75,10.0,NNE,6.9,-,N/A,,Overcast,20,2013-09-22 21:50:00
4:53 PM,77.0,72.0,84,29.75,10.0,NNE,5.8,-,N/A,,Overcast,20,2013-09-22 21:53:00
5:53 PM,77.0,72.0,84,29.77,10.0,NNE,5.8,-,N/A,,Overcast,20,2013-09-22 22:53:00
6:53 PM,75.9,70.0,82,29.78,10.0,NNE,8.1,-,N/A,,Overcast,30,2013-09-22 23:53:00
7:00 PM,75.2,69.8,83,29.77,10.0,NNE,8.1,-,N/A,,Overcast,20,2013-09-23 00:00:00
7:35 PM,75.2,69.8,83,29.77,10.0,NNE,6.9,-,N/A,,Mostly Cloudy,30,2013-09-23 00:35:00
7:42 PM,75.2,69.8,83,29.77,10.0,NNE,5.8,-,N/A,,Mostly Cloudy,30,2013-09-23 00:42:00
7:53 PM,75.0,70.0,84,29.78,10.0,NNE,6.9,-,N/A,,Partly Cloudy,30,2013-09-23 00:53:00
8:53 PM,75.0,71.1,87,29.80,10.0,NNE,3.5,-,N/A,,Mostly Cloudy,30,2013-09-23 01:53:00
9:53 PM,75.0,70.0,84,29.80,10.0,NE,4.6,-,N/A,,Partly Cloudy,50,2013-09-23 02:53:00
10:53 PM,73.9,70.0,87,29.80,10.0,NNE,4.6,-,N/A,,Clear,20,2013-09-23 03:53:00
11:53 PM,73.9,70.0,87,29.79,10.0,NNE,6.9,-,N/A,,Clear,20,2013-09-23 04:53:00